Regional Weather Roundup
Issued by NWS

Home | Current Version | Previous Version | Graphics & Text | Print | Product List | Glossary On
Versions: 1 2 3 4 5 6 7 8 9 10 11 12 13 14 15 16 17 18 19 20 21 22 23 24 25 26 27 28 29 30 31 32 33 34 35 36 37 38 39 40 41 42 43 44 45 46 47 48 49 50
266
ASUS44 KLIX 310601
RWRLA
LOUISIANA WEATHER ROUNDUP
NATIONAL WEATHER SERVICE NEW ORLEANS LA
1200 AM CST SAT JAN 31 2015

NOTE: "FAIR" INDICATES FEW OR NO CLOUDS BELOW 12,000 FEET WITH NO
      SIGNIFICANT WEATHER AND/OR OBSTRUCTIONS TO VISIBILITY.
      SKY/WX - SKY CONDITION AND SIGNIFICANT WEATHER.
      TMP - AIR TEMPERATURE.    DP   - DEWPOINT TEMPERATURE.
      RH  - RELATIVE HUMIDITY.  PRES - PRESSURE.
      HX  - HEAT INDEX.         WCI  - WIND CHILL INDEX.

*  THESE STATIONS ARE NOT NWS OR FAA STATIONS AND ARE NOT UNDER
   NWS QUALITY CONTROL.

LAZ040-048-061>063-065-066-069-310700-
SOUTHEAST LOUISIANA

CITY           SKY/WX    TMP DP  RH WIND       PRES   REMARKS
N.O. AUDUBON     N/A     52  35  52 MISG        N/A
6HR MIN TEMP:  49; 6HR MAX TEMP:  55;

N.O. INTL ARPT PTCLDY    52  36  54 NE9       30.33F
6HR MIN TEMP:  48; 6HR MAX TEMP:  54;

N.O. LAKEFRONT PTCLDY    54  36  50 NE16      30.33F
6HR MIN TEMP:  54; 6HR MAX TEMP:  56;

N.O. DOWNTOWN* NOT AVBL
SLIDELL        CLEAR     37  33  85 N3        30.34F
6HR MIN TEMP:  36; 6HR MAX TEMP:  52;

BATON ROUGE    CLEAR     42  32  67 NE5       30.34F
6HR MIN TEMP:  38; 6HR MAX TEMP:  54;

BOOTHVILLE     PTCLDY    53  42  66 NE8       30.32F
6HR MIN TEMP:  49; 6HR MAX TEMP:  54;

BELLE CHASSE   PTCLDY    44  35  70 NE6       30.32F
6HR MIN TEMP:  39; 6HR MAX TEMP:  55;

BOGALUSA*        N/A     37  33  85 N5        30.37F WCI  33
6HR MIN TEMP:  37; 6HR MAX TEMP:  50;

GALLIANO*      NOT AVBL
NEW ROADS*     NOT AVBL
GONZALES*      NOT AVBL
HAMMOND*       NOT AVBL
HOUMA*         PTCLDY    45  37  72 NE3       30.32F
6HR MIN TEMP:  45; 6HR MAX TEMP:  52;

PORT FOURCHON* CLEAR     55  43  62 NE12      30.34F

$$

LAZ041-044-053-054-310700-
SOUTHWEST LOUISIANA

CITY           SKY/WX    TMP DP  RH WIND       PRES   REMARKS
LAKE CHARLES   CLEAR     44  36  73 NE7       30.32F
6HR MIN TEMP:  43; 6HR MAX TEMP:  54;

LAFAYETTE      CLEAR     43  34  70 NE6       30.33F
6HR MIN TEMP:  42; 6HR MAX TEMP:  53;

PATTERSON      PTCLDY    45  36  70 NE3       30.33F
6HR MIN TEMP:  45; 6HR MAX TEMP:  55;

SALT POINT       N/A     45  38  76 CALM      30.31F
6HR MIN TEMP:  45; 6HR MAX TEMP:  54;

NEW IBERIA     PTCLDY    47  36  65 NE9       30.33F
6HR MIN TEMP:  47; 6HR MAX TEMP:  56;

CHENAULT AIRPK CLEAR     46  35  66 NE6       30.33F
6HR MIN TEMP:  46; 6HR MAX TEMP:  55;


$$

LAZ027-028-310700-
CENTRAL LOUISIANA

CITY           SKY/WX    TMP DP  RH WIND       PRES   REMARKS
FORT POLK      CLOUDY    45  34  66 E8        30.33F
6HR MIN TEMP:  45; 6HR MAX TEMP:  50;

ALEXANDRIA INT CLEAR     42  33  70 NE7       30.34F
6HR MIN TEMP:  42; 6HR MAX TEMP:  52;

ALEXANDRIA     CLEAR     40  33  76 NE3       30.36F
6HR MIN TEMP:  39; 6HR MAX TEMP:  48;


$$

LAZ001-002-310700-
NORTHWEST LOUISIANA

CITY           SKY/WX    TMP DP  RH WIND       PRES   REMARKS
SHREVEPORT     CLOUDY    47  32  56 E10       30.35F
6HR MIN TEMP:  44; 6HR MAX TEMP:  52;

BARKSDALE AFB  CLOUDY    45  31  57 E6        30.35F
6HR MIN TEMP:  43; 6HR MAX TEMP:  52;

DTN SHREVEPORT CLOUDY    45  30  55 E8        30.36F
6HR MIN TEMP:  44; 6HR MAX TEMP:  54;


$$

LAZ014-016-310700-
NORTHEAST LOUISIANA

CITY           SKY/WX    TMP DP  RH WIND       PRES   REMARKS
MONROE         CLEAR     37  32  82 NE3       30.39F
6HR MIN TEMP:  37; 6HR MAX TEMP:  47;

TALLULAH       CLEAR     38  31  76 NE8       30.39F WCI  32
6HR MIN TEMP:  36; 6HR MAX TEMP:  48;


$$




USA.gov is the U.S. government's official web portal to all federal, state and local government web resources and services.